AD8BW Weather Reports


Display with metric or nautical units.
time (UTC)temp
F
wind
direction
speed
MPH
gust
MPH
rain 1hr
in
rain 24hr
in
rain mn
in
humidity
%
barometer
mb
20260905190839 76 45 2.0 5.0 0.00 0.01 0.01 62 1015.7
20260905185838 76 42 4.0 7.0 0.00 0.01 0.01 63 1015.7
20260905184836 76 13 2.0 5.0 0.00 0.01 0.01 65 1015.7
20260905183836 76 28 4.0 7.0 0.00 0.01 0.01 64 1015.7
20260905182836 76 11 2.0 9.0 0.00 0.01 0.01 66 1015.7
20260905181838 75 5 2.0 7.0 0.00 0.01 0.01 68 1015.7
20260905180837 75 59 2.0 5.0 0.01 0.01 0.01 68 1015.8
20260905175840 75 19 2.0 5.0 0.01 0.01 0.01 68 1015.6
20260905174832 75 55 2.0 5.0 0.01 0.01 0.01 67 1015.7
20260905173832 75 56 2.0 9.0 0.01 0.01 0.01 65 1015.7
20260905172833 75 53 2.0 5.0 0.01 0.01 0.01 69 1015.7
20260905171831 75 45 2.0 5.0 0.01 0.01 0.01 68 1015.7
20260905170831 75 36 2.0 5.0 0.00 0.00 0.00 67 1015.8
20260905165829 75 44 0.0 5.0 0.00 0.00 0.00 68 1015.9
20260905164831 74 51 2.0 7.0 0.00 0.00 0.00 70 1015.9
20260905163831 74 0 2.0 5.0 0.00 0.00 0.00 70 1015.8
20260905162833 74 74 2.0 5.0 0.00 0.00 0.00 70 1015.8
20260905161832 74 42 2.0 5.0 0.00 0.00 0.00 72 1015.9
20260905160826 74 346 2.0 5.0 0.00 0.00 0.00 69 1015.9
20260905155830 73 42 2.0 7.0 0.00 0.00 0.00 71 1015.8
20260905154828 74 45 2.0 5.0 0.00 0.00 0.00 70 1015.8
20260905153827 73 66 2.0 5.0 0.00 0.00 0.00 70 1015.7
20260905152829 73 44 2.0 5.0 0.00 0.00 0.00 71 1015.6
20260905151827 73 41 2.0 7.0 0.00 0.00 0.00 69 1015.5
20260905150828 72 58 2.0 7.0 0.00 0.00 0.00 71 1015.5
20260905145828 72 45 0.0 4.0 0.00 0.00 0.00 73 1015.5
20260905144826 71 53 0.0 4.0 0.00 0.00 0.00 74 1015.4
20260905143830 70 30 0.0 5.0 0.00 0.01 0.00 78 1015.2
20260905142827 69 46 2.0 5.0 0.00 0.02 0.00 80 1015.2
20260905141825 68 48 2.0 5.0 0.00 0.03 0.00 83 1015.2
20260905140824 68 48 2.0 4.0 0.00 0.04 0.00 84 1015.2
20260905135828 67 45 0.0 4.0 0.00 0.05 0.00 86 1015.4
20260905134823 67 40 0.0 4.0 0.00 0.05 0.00 86 1015.2
20260905133823 67 52 2.0 4.0 0.00 0.06 0.00 87 1015.4
20260905132818 67 51 2.0 5.0 0.00 0.06 0.00 88 1015.2
20260905131818 67 64 0.0 5.0 0.00 0.06 0.00 89 1015.5
20260905130816 66 49 0.0 0.0 0.00 0.07 0.00 89 1015.4
20260905125818 66 49 0.0 0.0 0.00 0.07 0.00 90 1015.1
20260905124817 66 51 0.0 4.0 0.00 0.08 0.00 91 1015.2
20260905123818 65 51 0.0 4.0 0.00 0.08 0.00 92 1015.2
20260905122817 65 40 0.0 4.0 0.00 0.08 0.00 92 1015.1
20260905121816 65 49 2.0 4.0 0.00 0.08 0.00 93 1014.9
20260905120820 66 57 0.0 5.0 0.00 0.08 0.00 93 1015.0
20260905115815 66 49 0.0 4.0 0.00 0.08 0.00 93 1014.9
20260905114815 66 49 0.0 5.0 0.00 0.08 0.00 93 1014.9
20260905113813 66 54 0.0 4.0 0.00 0.08 0.00 94 1014.8
20260905112810 66 41 2.0 5.0 0.00 0.08 0.00 93 1014.8
20260905111810 66 42 0.0 4.0 0.00 0.08 0.00 93 1014.8
20260905110811 66 42 0.0 4.0 0.00 0.08 0.00 93 1014.7
20260905105813 66 30 0.0 0.0 0.00 0.08 0.00 93 1014.6
20260905104812 66 30 0.0 0.0 0.00 0.08 0.00 94 1014.7
20260905103812 66 11 0.0 0.0 0.00 0.08 0.00 93 1014.7
20260905102808 66 11 0.0 0.0 0.00 0.08 0.00 94 1014.7
20260905101807 66 329 0.0 0.0 0.00 0.08 0.00 94 1014.6
20260905100808 66 49 0.0 0.0 0.00 0.08 0.00 94 1014.4
20260905095809 66 49 0.0 0.0 0.00 0.08 0.00 93 1014.5
20260905094807 66 49 0.0 0.0 0.00 0.08 0.00 93 1014.4
20260905093806 66 49 0.0 0.0 0.00 0.08 0.00 93 1014.7
20260905092807 67 49 0.0 0.0 0.00 0.08 0.00 93 1014.8
20260905091808 67 49 0.0 0.0 0.00 0.08 0.00 93 1014.7
20260905090813 67 49 0.0 0.0 0.00 0.08 0.00 93 1014.6
20260905085807 67 49 0.0 0.0 0.00 0.08 0.00 93 1014.3
20260905084805 67 49 0.0 0.0 0.00 0.08 0.00 93 1014.3
20260905083807 67 49 0.0 0.0 0.00 0.08 0.00 93 1014.2
20260905082803 67 49 0.0 0.0 0.00 0.08 0.00 93 1014.1
20260905081804 67 49 0.0 0.0 0.00 0.08 0.00 93 1013.9
20260905080806 67 48 0.0 0.0 0.00 0.08 0.00 93 1014.0
20260905075801 67 48 0.0 0.0 0.00 0.08 0.00 93 1014.0
20260905074803 67 48 0.0 0.0 0.00 0.08 0.00 93 1014.5
20260905073801 67 48 0.0 0.0 0.00 0.08 0.00 93 1014.5
20260905072803 67 48 0.0 0.0 0.00 0.08 0.00 93 1014.2
20260905071803 67 48 0.0 0.0 0.00 0.08 0.00 93 1014.0
20260905070802 67 48 0.0 0.0 0.00 0.08 0.00 93 1014.2
20260905065757 67 48 0.0 4.0 0.00 0.08 0.00 92 1014.2
20260905064755 67 48 0.0 4.0 0.00 0.08 0.00 92 1013.7
20260905063758 67 48 2.0 5.0 0.00 0.08 0.00 92 1013.7
20260905062758 67 41 0.0 5.0 0.00 0.08 0.00 92 1013.9
20260905061754 67 42 2.0 4.0 0.00 0.08 0.00 92 1014.0
20260905060755 67 53 0.0 4.0 0.00 0.08 0.00 92 1014.2
20260905055750 67 42 0.0 0.0 0.00 0.08 0.00 92 1014.3
20260905054750 67 45 0.0 0.0 0.00 0.08 0.00 92 1014.6
20260905053752 67 45 0.0 0.0 0.00 0.08 0.00 92 1014.7
20260905052750 68 45 0.0 0.0 0.00 0.08 0.00 92 1014.6
20260905051751 68 45 0.0 0.0 0.00 0.08 0.00 92 1014.4
20260905050751 68 45 0.0 0.0 0.00 0.08 0.00 92 1014.3
20260905045754 68 45 0.0 0.0 0.00 0.08 0.00 92 1014.4
20260905044749 68 45 0.0 0.0 0.00 0.08 0.00 92 1014.4
20260905043752 69 45 0.0 0.0 0.00 0.08 0.00 92 1014.5
20260905042744 69 45 0.0 0.0 0.00 0.08 0.00 92 1014.5
20260905041745 69 45 0.0 0.0 0.00 0.08 0.00 92 1014.5
20260905040743 69 45 0.0 0.0 0.00 0.08 0.00 92 1014.6
20260905035744 69 45 0.0 0.0 0.00 0.08 0.08 92 1014.6
20260905034741 69 45 0.0 0.0 0.00 0.08 0.08 92 1014.7
20260905033744 69 45 0.0 0.0 0.00 0.08 0.08 92 1014.9
20260905032744 70 45 0.0 0.0 0.00 0.08 0.08 92 1014.9
20260905031740 70 45 0.0 0.0 0.00 0.08 0.08 92 1015.2
20260905030737 70 41 0.0 0.0 0.00 0.08 0.08 92 1015.4
20260905025736 70 41 0.0 0.0 0.00 0.08 0.08 92 1015.2
20260905024736 70 46 0.0 2.0 0.00 0.08 0.08 92 1015.1
20260905023735 71 46 0.0 4.0 0.00 0.08 0.08 92 1015.0
20260905022732 71 46 0.0 4.0 0.00 0.08 0.08 92 1015.0
20260905021730 71 46 0.0 2.0 0.00 0.08 0.08 92 1015.1
20260905020733 71 46 0.0 4.0 0.00 0.08 0.08 91 1015.1
20260905015732 71 52 0.0 0.0 0.00 0.08 0.08 91 1015.1
20260905014730 71 52 0.0 2.0 0.00 0.08 0.08 91 1015.4
20260905013729 71 52 0.0 2.0 0.00 0.08 0.08 91 1015.2
20260905012729 72 52 2.0 5.0 0.00 0.08 0.08 91 1015.2
20260905011733 72 54 2.0 5.0 0.00 0.08 0.08 90 1015.1
20260905010731 73 5 2.0 5.0 0.00 0.08 0.08 90 1015.0
20260905005725 73 73 2.0 5.0 0.00 0.08 0.08 89 1014.7
20260905004722 74 51 4.0 5.0 0.00 0.08 0.08 88 1014.7
20260905003722 75 42 2.0 4.0 0.00 0.08 0.08 88 1014.7
20260905002723 75 34 0.0 5.0 0.00 0.08 0.08 88 1014.6
20260905001722 75 329 0.0 0.0 0.00 0.08 0.08 87 1014.5
20260905000722 75 329 0.0 0.0 0.00 0.08 0.08 86 1014.3
20260904235719 76 329 0.0 0.0 0.00 0.08 0.08 87 1014.3
20260904234719 76 329 0.0 0.0 0.00 0.08 0.08 86 1014.3
20260904233729 76 329 0.0 0.0 0.00 0.08 0.08 86 1014.3
20260904232721 76 329 0.0 0.0 0.00 0.08 0.08 86 1014.1
20260904231716 76 329 0.0 0.0 0.00 0.08 0.08 86 1014.1
20260904230714 76 329 0.0 0.0 0.00 0.08 0.08 86 1013.9
20260904225716 76 329 0.0 0.0 0.00 0.08 0.08 86 1013.9
20260904224713 76 317 0.0 0.0 0.00 0.08 0.08 85 1013.7
20260904223713 76 317 0.0 0.0 0.00 0.08 0.08 85 1013.6
20260904222719 76 316 0.0 4.0 0.00 0.08 0.08 85 1013.7
20260904221716 76 344 0.0 4.0 0.00 0.08 0.08 85 1013.6
20260904220715 76 319 0.0 4.0 0.00 0.08 0.08 84 1013.6
20260904215712 76 310 0.0 5.0 0.00 0.08 0.08 84 1013.6
20260904214715 76 327 2.0 5.0 0.00 0.08 0.08 84 1013.5
20260904213714 76 325 0.0 4.0 0.00 0.08 0.08 84 1013.4
20260904212711 76 339 2.0 7.0 0.00 0.08 0.08 83 1013.2
20260904211710 76 287 2.0 5.0 0.00 0.08 0.08 83 1013.3
20260904210711 76 325 4.0 9.0 0.00 0.08 0.08 83 1013.3
20260904205714 76 320 4.0 9.0 0.00 0.08 0.08 83 1013.2
20260904204712 76 319 4.0 7.0 0.00 0.08 0.08 82 1013.1
20260904203716 77 336 2.0 5.0 0.00 0.08 0.08 83 1013.1
20260904202713 76 309 2.0 7.0 0.00 0.08 0.08 83 1013.0
20260904201709 76 326 2.0 7.0 0.00 0.08 0.08 83 1013.0
20260904200711 76 334 2.0 5.0 0.00 0.08 0.08 85 1013.3
20260904195714 76 170 2.0 5.0 0.00 0.08 0.08 85 1013.3
20260904194712 75 318 0.0 4.0 0.00 0.08 0.08 86 1013.5
20260904193712 75 182 0.0 5.0 0.00 0.08 0.08 86 1013.7
20260904192710 75 195 2.0 11.0 0.00 0.08 0.08 86 1013.8
20260904191709 75 229 2.0 7.0 0.00 0.08 0.08 88 1013.9